Location: Newark
(33.6333°S, 78.8500°W)
Time: 13:00:50
(UTC+00:00)

Courier 1B - Pass Details

Date: 29 September 2019
Orbit: 962 x 1209 km, 28.3° (Epoch: 21 October)

Event Time Altitude Azimuth Distance (km) Brightness Sun altitude
Rises 20:55:55 0° 282° (WNW) 4,108 12.0 28.1°
Reaches altitude 10° 20:58:49 10° 286° (WNW) 3,150 12.0 27.5°
Maximum altitude 21:06:33 59° 3° (N) 1,364 8.8 26.0°
Drops below altitude 10° 21:14:06 10° 80° (E) 3,081 9.7 24.5°
Sets 21:16:54 0° 83° (E) 4,014 10.2 23.9°
